Tracking 28125 objects as of 4-Oct-2023
HD Live streaming from Space Station
objects crossing your sky now

THORAD AGENA D DEB

Track THORAD AGENA D DEB now!
10-day predictions


NORAD ID: 4977
Int'l Code: 1970-025GX
Perigee: 1,056.2 km
Apogee: 1,086.7 km
Inclination: 100.0 °
Period: 106.5 minutes
Semi major axis: 7442 km
RCS: 0.0367 m2 (small)
Launch date: April 8, 1970
Source: United States (US)
Launch site: AIR FORCE WESTERN TEST RANGE (AFWTR)

Note: This is SATELLITE DEBRIS
Your satellite tracking list
Your tracking list is empty




NASA's NSSDC Master Catalog

Two Line Element Set (TLE):
1  4977U 70025GX  23276.54462015  .00000133  00000-0  27255-3 0  9999
2  4977 100.0344  27.4164 0020498 164.4874 259.3918 13.52153865636889
Source of the keplerian elements: AFSPC